Weather in Voronovo

Belarus     54°09′08″N   25°19′09″E
temp.,
°C
wind,
m/s
gust,
m/s
humid.,
%
clouds,
%
prec.,
mm/h
press.,
hPa
HPBL,
m
12 april, mon
mon1200:00+10se51566100 0.0 1023399
03:00+8se51468100 0.0 1023370
06:00+7se61470100 0.0 1022351
09:00+9se6146293 0.0 1022567
12:00+13sse81144100 0.0 10211087
15:00+15sse7937100 0.0 10191411
18:00+15sse594796 0.0 1018952
21:00+12se41056100 0.0 1018259
13 april, tue
tue1300:00+10ssw3866100 0.1 1019255
03:00+9sse2381100 0.9 101886
06:00+8nw3493100 0.6 1019214
09:00+6nw4695100 0.9 1020366
12:00+5nnw5792100 0.5 1021453
15:00+5nnw6891100 0.6 1022557
18:00+4n61088100 0.0 1021549
21:00+4nnw61188100 0.1 1021588
14 april, wed
wed1400:00+3nnw61095100 0.8 1020549
03:00+2nnw61297100 1.1 1020553
06:00+2nnw61297100 1.2 1019462
09:00+1n51197100 2.5 1019413
12:00+1n51197100 1.3 1019405
15:00+2n51197100 2.1 1019446
18:00+2n51297100 0.7 1018440
21:00+1n51298100 2.6 1019555
15 april, thu
thu1500:00+2n51298100 2.9 1018551
03:00+3n51197100 4.6 1017496
06:00+3nne51198100 2.4 1016440
09:00+4ne61298100 3.8 1017442
12:00+4ne51196100 0.6 1018408
15:00+5ne51094100 0.6 1018419
18:00+5nne51094100 0.3 1018549
21:00+4nne4894100 0.3 1018528
16 april, fri
fri1600:00+4nne4997100 0.0 1018423
03:00+4nne4998100 0.0 1017372
06:00+5nne51098100 0.0 1016449
09:00+5ne61397100 2.9 1016539
12:00+8ne61192100 0.0 1017657
15:00+11ne7118468 0.1 1017900
18:00+10ne71186100 0.1 10171052
21:00+8ne61393100 0.1 1019724